Location: Doughton Park
(36.4224°N, 81.1835°W)
Time: 19:40:06
(UTC-04:00)

Amateur Radio Satellites - All Passes

Search period start: 29 July 2016 19:10
Search period end: 30 July 2016 19:10
Location: Doughton Park, 36.4224°N, 81.1835°W

Satellite Date Start Highest point End Downlink Frequencies (MHz)
Time Altitude Azimuth
BRITE-PL 29 Jul 19:28:20 19:31:35 22° 265° (W) 19:34:51 437.365/2234.400
PHONESAT 2.4 29 Jul 19:36:06 19:39:02 39° 7° (N) 19:41:58 2401.200-2431.200
O/OREOS (USA 219) 29 Jul 19:38:17 19:40:28 13° 99° (E) 19:42:38 437.305
LilacSat-2 29 Jul 19:42:38 19:45:49 24° 264° (W) 19:49:01 437.200
CINEMA 3 29 Jul 19:46:04 19:49:49 26° 69° (ENE) 19:53:43 145.822/145.860
PCSat 29 Jul 19:51:02 19:56:22 59° 300° (WNW) 20:01:44 145.827
DOVE 4 29 Jul 19:54:00 19:58:15 70° 259° (WSW) 20:02:46 437.250
CUBESAT XI-V 29 Jul 19:55:10 19:58:09 17° 293° (WNW) 20:01:09 437.345
NOAA 18 29 Jul 19:58:21 20:02:55 26° 264° (W) 20:07:32 137.9125
BEESAT 3 29 Jul 20:01:25 20:02:33 11° 315° (NW) 20:03:42 437.485
AAUSAT CUBESAT 2 29 Jul 20:03:35 20:04:23 10° 65° (ENE) 20:05:13 437.432
HO-68 29 Jul 20:07:02 20:13:58 54° 69° (ENE) 20:20:56 435.675
BEESAT 2 29 Jul 20:11:43 20:14:04 15° 312° (NW) 20:16:27 435.950
CANX-2 29 Jul 20:16:25 20:20:32 49° 74° (ENE) 20:24:40 2200.000
GOMX 1 29 Jul 20:17:10 20:19:43 16° 268° (W) 20:22:19 467.674
Cubesat XI-IV 29 Jul 20:17:29 20:20:57 17° 267° (W) 20:24:26 437.490
ISS 29 Jul 20:26:06 20:29:15 48° 135° (SE) 20:32:24 145.825
CUTE 1.7 + AOD 2 29 Jul 20:29:11 20:33:23 60° 76° (ENE) 20:37:36 437.475
CUBEBUG 2 29 Jul 20:34:29 20:38:16 25° 69° (ENE) 20:42:06 437.445
Cosmos 2491 29 Jul 20:35:58 20:41:19 18° 79° (E) 20:46:40 435.465 / 435.565
Oscar 11 29 Jul 20:39:31 20:40:59 12° 65° (ENE) 20:42:28 145.826/435.025
STRAND 1 29 Jul 20:52:11 20:57:19 83° 284° (WNW) 21:02:24 437.568
AIST 2 29 Jul 20:55:55 21:00:00 77° 117° (ESE) 21:04:08 435.215
SEEDS 29 Jul 21:03:10 21:07:23 75° 258° (WSW) 21:11:37 437.485
Cosmos 2504 29 Jul 21:07:43 21:12:21 16° 65° (ENE) 21:16:49 435.465 / 435.565
YUBILEINY 29 Jul 21:08:02 21:16:44 58° 79° (E) 21:25:20 435.215
COMPASS 1 29 Jul 21:09:40 21:13:51 88° 82° (E) 21:18:02 437.405
PHONESAT 2.4 29 Jul 21:12:35 21:15:39 72° 204° (SSW) 21:18:44 2401.200-2431.200
M-CUBED/EXP-1 PRIME 29 Jul 21:13:10 21:13:36 10° 57° (ENE) 21:14:03 437.505
O/OREOS (USA 219) 29 Jul 21:15:06 21:19:24 46° 294° (WNW) 21:23:42 437.305
CINEMA 3 29 Jul 21:22:59 21:26:49 27° 265° (W) 21:30:49 145.822/145.860
PRISM 29 Jul 21:33:24 21:37:05 31° 98° (E) 21:40:46 437.425
FUNcube-1 29 Jul 21:33:38 21:37:57 45° 73° (ENE) 21:42:18 145.935
AUBIESAT-1 29 Jul 21:34:42 21:37:02 15° 60° (ENE) 21:39:28 437.475
AAUSAT CUBESAT 2 29 Jul 21:35:16 21:39:21 57° 260° (W) 21:43:26 437.432
DELFI C3 29 Jul 21:35:23 21:38:14 19° 69° (ENE) 21:41:06 145.870
ZACube-1 29 Jul 21:36:05 21:40:29 51° 74° (ENE) 21:44:57 437.345
UWE-3 29 Jul 21:41:47 21:46:22 87° 259° (WSW) 21:51:03 435.000/436.395/437.385
CANX-2 29 Jul 21:55:01 21:56:38 12° 268° (W) 21:58:15 2200.000
HO-68 29 Jul 21:56:10 22:01:55 26° 265° (W) 22:07:44 435.675
ISS 29 Jul 22:03:29 22:05:51 18° 331° (NNW) 22:08:13 145.825
CUBEBUG 2 29 Jul 22:10:47 22:14:43 28° 265° (W) 22:18:47 437.445
Oscar 11 29 Jul 22:12:19 22:16:35 57° 260° (W) 22:20:53 145.826/435.025
HUMSAT D 29 Jul 22:25:58 22:29:56 37° 73° (ENE) 22:33:55 437.325/437.525
Cosmos 2491 29 Jul 22:28:18 22:37:01 80° 277° (W) 22:45:46 435.465 / 435.565
ANTELSAT 29 Jul 22:35:27 22:37:33 13° 91° (E) 22:39:39 437.575/2403.000
AIST 2 29 Jul 22:37:52 22:38:59 11° 315° (NW) 22:40:07 435.215
M-CUBED/EXP-1 PRIME 29 Jul 22:43:45 22:47:27 61° 254° (WSW) 22:51:32 437.505
PHONESAT 2.4 29 Jul 22:50:26 22:51:46 12° 216° (SW) 22:53:07 2401.200-2431.200
Cosmos 2504 29 Jul 22:58:49 23:06:52 83° 265° (W) 23:14:17 435.465 / 435.565
YUBILEINY 29 Jul 23:05:53 23:12:52 27° 277° (W) 23:19:49 435.215
AISAT 29 Jul 23:06:23 23:06:54 10° 63° (ENE) 23:07:26 437.250
AUBIESAT-1 29 Jul 23:07:32 23:11:06 38° 258° (WSW) 23:14:57 437.475
AO-85 29 Jul 23:07:43 23:12:03 87° 62° (ENE) 23:16:02 145.980
PRISM 29 Jul 23:09:22 23:12:08 18° 292° (WNW) 23:14:55 437.425
DELFI C3 29 Jul 23:09:31 23:12:54 26° 264° (W) 23:16:16 145.870
FUNcube-1 29 Jul 23:11:47 23:14:23 15° 268° (W) 23:17:00 145.935
TIGRISAT 29 Jul 23:14:31 23:18:43 35° 97° (E) 23:22:49 435.000
ZACube-1 29 Jul 23:14:54 23:17:02 13° 269° (W) 23:19:10 437.345
UNISAT 6 29 Jul 23:31:38 23:36:12 59° 101° (E) 23:40:36 437.425
50 SAT 29 Jul 23:44:11 23:47:08 23° 71° (ENE) 23:50:05 437.505
CUBEBUG 1 29 Jul 23:47:13 23:51:02 32° 71° (ENE) 23:54:55 437.445
ESTCUBE 1 29 Jul 23:49:10 23:53:33 55° 75° (ENE) 23:57:56 437.505/2401.250
VELOX 1 29 Jul 23:53:42 23:57:39 34° 71° (ENE) 00:01:37 145.980
HUMSAT D 30 Jul 00:03:00 00:05:39 16° 267° (W) 00:08:19 437.325/437.525
NANOSAT C BR1 30 Jul 00:05:03 00:07:57 18° 94° (E) 00:10:48 145.865
DUCHIFAT 1 30 Jul 00:07:51 00:10:44 18° 94° (E) 00:13:36 145.980
ANTELSAT 30 Jul 00:10:06 00:14:33 50° 287° (WNW) 00:18:54 437.575/2403.000
DX 1 30 Jul 00:27:37 00:31:52 61° 74° (ENE) 00:36:09 434.975-435.025
QB50P1 30 Jul 00:28:22 00:32:19 35° 98° (E) 00:36:14 145.935-145.965
Cosmos 2491 30 Jul 00:31:15 00:35:17 14° 297° (WNW) 00:39:21 435.465 / 435.565
POPSAT HIP 1 30 Jul 00:35:02 00:39:06 41° 99° (E) 00:43:08 437.405
UKube-1 30 Jul 00:35:37 00:39:50 59° 74° (ENE) 00:44:05 .
AISAT 30 Jul 00:38:25 00:42:46 67° 259° (W) 00:47:09 437.250
AIST 1 30 Jul 00:48:49 00:53:07 57° 81° (E) 00:57:26
TIGRISAT 30 Jul 00:51:49 00:55:07 20° 293° (WNW) 00:58:22 435.000
Cosmos 2504 30 Jul 00:56:17 00:58:42 12° 284° (WNW) 01:01:05 435.465 / 435.565
QB50P2 30 Jul 00:56:35 01:00:53 84° 103° (ESE) 01:05:09 145.880/145.840
POLYITAN 1 30 Jul 00:59:13 01:03:32 86° 99° (E) 01:07:48 437.675
SPROUT 30 Jul 01:03:00 01:07:16 83° 259° (WSW) 01:11:35 437.525
UNISAT 6 30 Jul 01:10:26 01:12:19 12° 296° (WNW) 01:14:11 437.425
50 SAT 30 Jul 01:18:10 01:20:42 18° 265° (W) 01:23:14 437.505
GONETS M04 30 Jul 01:18:52 01:23:27 15° 64° (ENE) 01:28:00
CUBEBUG 1 30 Jul 01:24:24 01:27:23 18° 266° (W) 01:30:23 437.445
ESTCUBE 1 30 Jul 01:29:05 01:30:39 12° 268° (W) 01:32:13 437.505/2401.250
VELOX 1 30 Jul 01:31:08 01:34:10 18° 266° (W) 01:37:12 145.980
JAS-2 30 Jul 01:34:25 01:39:45 55° 101° (E) 01:45:38 435.910
NANOSAT C BR1 30 Jul 01:39:52 01:43:43 33° 288° (WNW) 01:47:32 145.865
SWISSCUBE 30 Jul 01:40:32 01:42:34 13° 63° (ENE) 01:44:35 437.505
JUGNU 30 Jul 01:42:01 01:45:00 14° 173° (S) 01:47:59 437.505
DUCHIFAT 1 30 Jul 01:42:39 01:46:28 33° 289° (WNW) 01:50:17 145.980
BUGSAT 1 30 Jul 01:44:11 01:48:27 76° 283° (WNW) 01:52:40 437.445
TISAT 1 30 Jul 01:47:22 01:51:32 70° 76° (ENE) 01:55:45 437.305
Cosmos 2499 30 Jul 01:51:27 01:55:16 14° 64° (ENE) 01:58:58 435.465 / 435.565
Oscar 19 30 Jul 01:56:10 02:00:05 21° 95° (E) 02:04:00 437.125/150
BEESAT 30 Jul 02:00:09 02:03:25 18° 66° (ENE) 02:06:40 436.000
QB50P1 30 Jul 02:04:57 02:07:48 17° 293° (WNW) 02:10:37 145.935-145.965
POPSAT HIP 1 30 Jul 02:12:03 02:14:30 15° 294° (WNW) 02:16:57 437.405
ITUPSAT 1 30 Jul 02:24:12 02:28:26 32° 70° (ENE) 02:32:40 437.325
BEESAT 3 30 Jul 02:40:47 02:43:39 19° 50° (NE) 02:46:29 437.485
BEESAT 2 30 Jul 02:53:36 02:55:50 14° 48° (NE) 02:58:03 435.950
ISS 30 Jul 02:56:04 02:58:44 23° 31° (NNE) 03:01:23 145.825
GONETS M04 30 Jul 03:12:45 03:21:37 83° 83° (E) 03:30:29
SWISSCUBE 30 Jul 03:15:02 03:19:47 64° 259° (WSW) 03:24:32 437.505
JAS-2 30 Jul 03:20:59 03:24:30 18° 294° (WNW) 03:28:14 435.910
CUSAT 1 30 Jul 03:21:59 03:24:58 20° 97° (E) 03:27:30 437.405
JUGNU 30 Jul 03:29:53 03:33:14 15° 183° (S) 03:36:33 437.505
Oscar 19 30 Jul 03:34:41 03:39:30 40° 289° (WNW) 03:44:18 437.125/150
BEESAT 30 Jul 03:36:19 03:40:51 42° 261° (W) 03:45:23 436.000
ITAMSAT 1 30 Jul 03:36:55 03:41:20 28° 97° (E) 03:45:42 435.822/435.867
Gurwin Techsat 1B 30 Jul 03:40:07 03:45:28 83° 284° (WNW) 03:50:46 435.225
Cosmos 2499 30 Jul 03:41:51 03:49:34 88° 265° (W) 03:56:45 435.465 / 435.565
MOZHAYETS 4 30 Jul 03:49:43 03:53:45 30° 71° (ENE) 03:57:46
AO-7 30 Jul 03:50:16 03:56:12 21° 94° (E) 04:02:04 29.400- 29.500
ITUPSAT 1 30 Jul 04:02:25 04:06:14 23° 264° (W) 04:10:05 437.325
SRMSAT 30 Jul 04:04:41 04:07:40 14° 173° (S) 04:10:38 437.500
DANDE 30 Jul 04:12:08 04:17:09 35° 97° (E) 04:21:01 436.750
BEESAT 3 30 Jul 04:17:48 04:21:24 34° 246° (WSW) 04:24:58 437.485
KKS-1 30 Jul 04:28:34 04:32:59 78° 76° (ENE) 04:37:27 437.445
BEESAT 2 30 Jul 04:30:04 04:33:56 49° 244° (WSW) 04:37:47 435.950
ISS 30 Jul 04:32:14 04:35:13 34° 227° (SW) 04:38:11 145.825
PCSat 30 Jul 04:41:20 04:46:44 64° 62° (ENE) 04:52:05 145.827
STARS 30 Jul 04:58:32 05:02:55 81° 76° (ENE) 05:07:21 437.465
CUSAT 1 30 Jul 05:04:33 05:06:49 15° 281° (W) 05:08:50 437.405
GONETS M04 30 Jul 05:11:59 05:17:15 18° 281° (W) 05:22:32
ITAMSAT 1 30 Jul 05:16:13 05:20:44 31° 291° (WNW) 05:25:14 435.822/435.867
CUBESAT XI-V 30 Jul 05:17:43 05:21:44 30° 71° (ENE) 05:25:45 437.345
AIST 2 30 Jul 05:20:01 05:23:25 24° 52° (NE) 05:26:48 435.215
JUGNU 30 Jul 05:20:30 05:21:25 10° 193° (SSW) 05:22:20 437.505
MOZHAYETS 4 30 Jul 05:27:12 05:30:52 23° 265° (W) 05:34:32
Cosmos 2499 30 Jul 05:38:48 05:41:15 12° 283° (WNW) 05:43:40 435.465 / 435.565
AO-7 30 Jul 05:41:16 05:49:36 74° 290° (WNW) 05:57:51 29.400- 29.500
RS-15 30 Jul 05:44:20 05:53:52 33° 104° (ESE) 06:03:47 29.354- 29.394
HORYU 2 30 Jul 05:46:27 05:50:20 29° 97° (E) 05:54:11 437.375
O/OREOS (USA 219) 30 Jul 05:49:00 05:52:16 19° 60° (ENE) 05:55:31 437.305
SRMSAT 30 Jul 05:52:48 05:56:02 15° 184° (S) 05:59:16 437.500
DANDE 30 Jul 05:56:15 05:59:44 18° 282° (WNW) 06:02:41 436.750
BRITE-PL 30 Jul 05:57:17 05:59:10 12° 92° (E) 06:01:05 437.365/2234.400
PCSat 30 Jul 06:26:36 06:29:31 15° 256° (WSW) 06:32:26 145.827
STRAND 1 30 Jul 06:30:06 06:32:01 12° 62° (ENE) 06:33:56 437.568
GOMX 1 30 Jul 06:41:48 06:45:07 17° 93° (E) 06:48:29 467.674
NOAA 18 30 Jul 06:42:39 06:46:27 19° 94° (E) 06:50:12 137.9125
CUBESAT XI-V 30 Jul 06:55:30 06:59:05 22° 265° (W) 07:02:42 437.345
Cubesat XI-IV 30 Jul 06:55:49 07:00:11 25° 96° (E) 07:04:32 437.490
AIST 2 30 Jul 06:58:16 07:01:52 28° 247° (WSW) 07:05:27 435.215
LilacSat-2 30 Jul 07:17:50 07:21:30 40° 98° (E) 07:25:06 437.200
CUTE-I 30 Jul 07:17:53 07:22:57 42° 99° (E) 07:27:57 437.470
HORYU 2 30 Jul 07:23:13 07:26:42 23° 292° (WNW) 07:30:10 437.375
NOAA 15 30 Jul 07:27:02 07:32:18 71° 102° (ESE) 07:37:33 137.62
O/OREOS (USA 219) 30 Jul 07:27:35 07:31:46 37° 256° (WSW) 07:35:58 437.305
BRITE-PL 30 Jul 07:32:56 07:37:54 71° 284° (WNW) 07:43:15 437.365/2234.400
AO-7 30 Jul 07:36:43 07:40:56 15° 309° (NW) 07:45:08 29.400- 29.500
SO-50 30 Jul 07:43:27 07:48:15 60° 117° (ESE) 07:53:02 436.795
RS-15 30 Jul 07:54:01 08:05:22 66° 304° (NW) 08:17:25 29.354- 29.394
DOVE 4 30 Jul 07:54:43 07:59:40 41° 98° (E) 08:04:40 437.250
STRAND 1 30 Jul 08:05:21 08:10:30 76° 258° (WSW) 08:15:40 437.568
YUBILEINY 30 Jul 08:16:57 08:18:46 11° 75° (ENE) 08:20:34 435.215
GOMX 1 30 Jul 08:18:18 08:23:22 55° 286° (WNW) 08:28:39 467.674
CUTE 1.7 + AOD 2 30 Jul 08:18:38 08:20:20 12° 92° (E) 08:22:03 437.475
PRISM 30 Jul 08:21:21 08:23:58 17° 67° (ENE) 08:26:35 437.425
NOAA 18 30 Jul 08:22:00 08:27:21 51° 289° (WNW) 08:32:39 137.9125
Cubesat XI-IV 30 Jul 08:35:27 08:40:16 35° 291° (WNW) 08:45:04 437.490
Cosmos 2491 30 Jul 08:41:58 08:50:20 46° 77° (ENE) 08:58:39 435.465 / 435.565
SEEDS 30 Jul 08:50:19 08:53:28 21° 95° (E) 08:56:36 437.485
LilacSat-2 30 Jul 08:53:48 08:55:23 12° 293° (WNW) 08:56:58 437.200
COMPASS 1 30 Jul 08:56:12 08:58:48 16° 94° (E) 09:01:24 437.405
CUTE-I 30 Jul 08:58:40 09:02:40 22° 294° (WNW) 09:06:40 437.470
NOAA 15 30 Jul 09:08:56 09:11:25 14° 298° (WNW) 09:13:56 137.62
CINEMA 3 30 Jul 09:19:08 09:24:12 88° 104° (ESE) 09:29:07 145.822/145.860
AAUSAT CUBESAT 2 30 Jul 09:20:26 09:23:50 25° 96° (E) 09:27:13 437.432
HO-68 30 Jul 09:24:44 09:31:57 72° 104° (ESE) 09:39:05 435.675
SO-50 30 Jul 09:25:51 09:29:06 18° 313° (NW) 09:32:22 436.795
ZACube-1 30 Jul 09:29:21 09:31:00 12° 91° (E) 09:32:38 437.345
DOVE 4 30 Jul 09:33:03 09:37:02 23° 292° (WNW) 09:41:04 437.250
UWE-3 30 Jul 09:34:53 09:38:31 23° 94° (E) 09:42:04 435.000/436.395/437.385
CANX-2 30 Jul 09:39:34 09:43:41 56° 285° (WNW) 09:47:46 2200.000
Cosmos 2504 30 Jul 09:43:33 09:48:22 16° 78° (ENE) 09:53:09 435.465 / 435.565
CUTE 1.7 + AOD 2 30 Jul 09:52:22 09:56:24 45° 286° (WNW) 10:00:24 437.475
PRISM 30 Jul 09:55:19 09:58:59 32° 262° (W) 10:02:41 437.425
Oscar 11 30 Jul 10:02:19 10:06:06 29° 97° (E) 10:09:52 145.826/435.025
CUBEBUG 2 30 Jul 10:03:30 10:08:12 77° 101° (E) 10:12:43 437.445
YUBILEINY 30 Jul 10:05:07 10:13:51 73° 93° (E) 10:22:38 435.215
TIGRISAT 30 Jul 10:10:45 10:14:27 24° 69° (ENE) 10:18:12 435.000
RS-15 30 Jul 10:12:11 10:20:50 22° 332° (NNW) 10:29:49 29.354- 29.394
SEEDS 30 Jul 10:25:37 10:29:07 27° 289° (WNW) 10:32:37 437.485
M-CUBED/EXP-1 PRIME 30 Jul 10:26:48 10:29:05 13° 96° (E) 10:31:21 437.505
UNISAT 6 30 Jul 10:27:35 10:31:53 38° 72° (ENE) 10:36:15 437.425
COMPASS 1 30 Jul 10:30:43 10:34:26 33° 288° (WNW) 10:38:08 437.405
Cosmos 2491 30 Jul 10:39:14 10:46:50 35° 274° (W) 10:54:29 435.465 / 435.565
DELFI C3 30 Jul 10:48:56 10:52:41 42° 99° (E) 10:56:26 145.870
AUBIESAT-1 30 Jul 10:48:58 10:52:17 19° 98° (E) 10:55:33 437.475
AAUSAT CUBESAT 2 30 Jul 10:56:00 10:59:11 22° 290° (WNW) 11:02:21 437.432
FUNcube-1 30 Jul 11:00:19 11:04:42 60° 285° (WNW) 11:08:56 145.935
ZACube-1 30 Jul 11:03:16 11:07:36 52° 286° (WNW) 11:11:48 437.345
ANTELSAT 30 Jul 11:05:31 11:10:09 81° 256° (WSW) 11:14:53 437.575/2403.000
UWE-3 30 Jul 11:11:02 11:14:55 28° 290° (WNW) 11:18:43 435.000/436.395/437.385
HO-68 30 Jul 11:13:55 11:18:55 21° 301° (WNW) 11:23:55 435.675
QB50P1 30 Jul 11:18:57 11:22:02 20° 68° (ENE) 11:25:07 145.935-145.965
POPSAT HIP 1 30 Jul 11:25:27 11:28:48 23° 69° (ENE) 11:32:09 437.405
Cosmos 2504 30 Jul 11:31:35 11:40:28 88° 99° (E) 11:49:20 435.465 / 435.565
Oscar 11 30 Jul 11:38:51 11:42:01 20° 291° (WNW) 11:45:11 145.826/435.025
ESTCUBE 1 30 Jul 11:45:43 11:48:04 14° 93° (E) 11:50:25 437.505/2401.250
QB50P2 30 Jul 11:46:29 11:50:32 43° 73° (ENE) 11:54:36 145.880/145.840
JAS-2 30 Jul 11:46:39 11:50:12 17° 65° (ENE) 11:53:35 435.910
TIGRISAT 30 Jul 11:46:53 11:50:57 30° 264° (W) 11:55:04 435.000
HUMSAT D 30 Jul 11:47:05 11:51:16 80° 283° (WNW) 11:55:22 437.325/437.525
POLYITAN 1 30 Jul 11:49:06 11:53:09 44° 73° (ENE) 11:57:14 437.675
M-CUBED/EXP-1 PRIME 30 Jul 11:59:13 12:03:52 58° 291° (WNW) 12:08:24 437.505
YUBILEINY 30 Jul 12:05:00 12:11:25 22° 292° (WNW) 12:17:55 435.215
UNISAT 6 30 Jul 12:05:29 12:08:42 18° 267° (W) 12:11:57 437.425
DX 1 30 Jul 12:20:06 12:22:05 13° 93° (E) 12:24:04 434.975-435.025
AUBIESAT-1 30 Jul 12:22:29 12:26:48 39° 293° (WNW) 12:31:03 437.475
DELFI C3 30 Jul 12:25:30 12:27:08 12° 293° (WNW) 12:28:45 145.870
UKube-1 30 Jul 12:27:23 12:28:56 12° 92° (E) 12:30:30 .
NANOSAT C BR1 30 Jul 12:28:43 12:32:55 64° 259° (W) 12:37:09 145.865
BUGSAT 1 30 Jul 12:31:10 12:35:06 50° 74° (ENE) 12:39:08 437.445
DUCHIFAT 1 30 Jul 12:31:14 12:35:25 64° 260° (W) 12:39:39 145.980
AISAT 30 Jul 12:31:24 12:35:13 27° 97° (E) 12:39:01 437.250
RS-15 30 Jul 12:33:15 12:40:12 16° 10° (N) 12:47:11 29.354- 29.394
50 SAT 30 Jul 12:48:02 12:51:26 40° 99° (E) 12:54:49 437.505
SPROUT 30 Jul 12:52:15 12:55:28 20° 95° (E) 12:58:39 437.525
QB50P1 30 Jul 12:53:50 12:57:34 30° 263° (W) 13:01:22 145.935-145.965
POPSAT HIP 1 30 Jul 13:00:52 13:04:26 26° 264° (W) 13:08:01 437.405
Oscar 19 30 Jul 13:10:41 13:14:45 25° 67° (ENE) 13:18:52 437.125/150
CUBEBUG 1 30 Jul 13:13:42 13:18:08 85° 280° (W) 13:22:33 437.445
AIST 1 30 Jul 13:15:34 13:19:28 37° 92° (E) 13:23:23
AO-85 30 Jul 13:18:04 13:23:21 57° 116° (ESE) 13:28:28 145.980
ESTCUBE 1 30 Jul 13:20:47 13:25:05 46° 287° (WNW) 13:29:22 437.505/2401.250
Gurwin Techsat 1B 30 Jul 13:21:50 13:24:36 14° 63° (ENE) 13:27:21 435.225
VELOX 1 30 Jul 13:21:58 13:26:25 82° 285° (WNW) 13:30:53 145.980
QB50P2 30 Jul 13:24:25 13:26:31 13° 268° (W) 13:28:38 145.880/145.840
POLYITAN 1 30 Jul 13:27:07 13:29:09 13° 268° (W) 13:31:13 437.675
JAS-2 30 Jul 13:28:59 13:34:56 58° 259° (WSW) 13:40:18 435.910
Cosmos 2504 30 Jul 13:29:15 13:34:54 18° 294° (WNW) 13:40:33 435.465 / 435.565
TISAT 1 30 Jul 13:35:32 13:37:34 13° 93° (E) 13:39:34 437.305
DX 1 30 Jul 13:54:17 13:58:30 48° 287° (WNW) 14:02:43 434.975-435.025
UKube-1 30 Jul 14:01:02 14:05:15 51° 286° (WNW) 14:09:26 .
AISAT 30 Jul 14:07:57 14:11:32 24° 291° (WNW) 14:15:08 437.250
BUGSAT 1 30 Jul 14:09:47 14:10:46 11° 269° (W) 14:11:45 437.445
GONETS M04 30 Jul 14:17:53 14:23:12 18° 79° (E) 14:28:30
50 SAT 30 Jul 14:23:53 14:24:39 11° 293° (WNW) 14:25:25 437.505
Cosmos 2499 30 Jul 14:25:45 14:29:53 14° 78° (ENE) 14:33:58 435.465 / 435.565
SPROUT 30 Jul 14:27:38 14:31:24 30° 289° (WNW) 14:35:09 437.525
AO-7 30 Jul 14:46:48 14:53:17 26° 57° (ENE) 14:59:45 29.400- 29.500
RS-15 30 Jul 14:46:49 14:58:00 37° 43° (NE) 15:09:01 29.354- 29.394
Oscar 19 30 Jul 14:49:15 14:53:52 34° 262° (W) 14:58:32 437.125/150
ITAMSAT 1 30 Jul 14:52:19 14:56:58 34° 69° (ENE) 15:01:38 435.822/435.867
AIST 1 30 Jul 14:54:48 14:57:11 15° 287° (WNW) 14:59:37
Gurwin Techsat 1B 30 Jul 14:58:38 15:03:55 67° 258° (WSW) 15:09:14 435.225
AO-85 30 Jul 15:00:11 15:04:09 21° 311° (NW) 15:07:59 145.980
TISAT 1 30 Jul 15:09:21 15:13:24 44° 287° (WNW) 15:17:26 437.305
PHONESAT 2.4 30 Jul 15:17:30 15:20:04 25° 149° (SSE) 15:22:39 2401.200-2431.200
SWISSCUBE 30 Jul 15:17:52 15:22:19 38° 99° (E) 15:26:44 437.505
CUSAT 1 30 Jul 15:36:23 15:39:36 39° 262° (W) 15:43:39 437.405
BEESAT 30 Jul 15:38:37 15:43:20 59° 101° (E) 15:48:00 436.000
ITUPSAT 1 30 Jul 16:04:13 16:08:59 76° 285° (WNW) 16:13:43 437.325
GONETS M04 30 Jul 16:10:11 16:18:51 80° 277° (W) 16:27:38
Cosmos 2499 30 Jul 16:12:48 16:21:42 83° 94° (E) 16:30:22 435.465 / 435.565
SO-50 30 Jul 16:17:52 16:21:49 27° 51° (NE) 16:25:38 436.795
KKS-1 30 Jul 16:23:03 16:26:07 18° 94° (E) 16:29:11 437.445
ITAMSAT 1 30 Jul 16:32:07 16:36:25 26° 264° (W) 16:40:45 435.822/435.867
DANDE 30 Jul 16:35:11 16:37:20 19° 264° (W) 16:39:44 436.750
AO-7 30 Jul 16:37:00 16:45:18 69° 255° (WSW) 16:53:41 29.400- 29.500
HORYU 2 30 Jul 16:42:25 16:45:45 21° 67° (ENE) 16:49:05 437.375
STARS 30 Jul 16:51:29 16:54:31 18° 94° (E) 16:57:31 437.465
PHONESAT 2.4 30 Jul 16:53:21 16:56:23 64° 343° (NNW) 16:59:27 2401.200-2431.200
SWISSCUBE 30 Jul 16:56:25 16:59:48 20° 293° (WNW) 17:03:10 437.505
RS-15 30 Jul 16:59:13 17:11:28 71° 246° (WSW) 17:23:27 29.354- 29.394
BEESAT 30 Jul 17:18:17 17:20:34 14° 296° (WNW) 17:22:52 436.000
MOZHAYETS 4 30 Jul 17:23:32 17:28:07 81° 285° (WNW) 17:32:39
PCSat 30 Jul 17:41:45 17:42:55 11° 102° (ESE) 17:44:06 145.827
SO-50 30 Jul 17:58:16 18:02:14 29° 248° (WSW) 18:06:05 436.795
LilacSat-2 30 Jul 17:58:31 18:00:46 15° 68° (ENE) 18:03:03 437.200
KKS-1 30 Jul 17:58:39 18:02:46 36° 289° (WNW) 18:06:51 437.445
BEESAT 3 30 Jul 18:05:21 18:09:13 71° 118° (ESE) 18:13:09 437.485
NOAA 18 30 Jul 18:06:05 18:10:45 29° 67° (ENE) 18:15:28 137.9125
Cosmos 2499 30 Jul 18:09:43 18:15:41 20° 292° (WNW) 18:21:35 435.465 / 435.565
GONETS M04 30 Jul 18:13:02 18:17:06 14° 297° (WNW) 18:21:14
Cubesat XI-IV 30 Jul 18:15:11 18:19:57 34° 69° (ENE) 18:24:44 437.490
HORYU 2 30 Jul 18:18:03 18:22:04 32° 262° (W) 18:26:08 437.375
BEESAT 2 30 Jul 18:19:16 18:23:05 50° 116° (ESE) 18:26:56 435.950
STARS 30 Jul 18:26:53 18:30:57 35° 289° (WNW) 18:34:58 437.465
PHONESAT 2.4 30 Jul 18:30:16 18:33:09 36° 0° (N) 18:36:03 2401.200-2431.200
CUTE-I 30 Jul 18:37:03 18:42:16 55° 73° (ENE) 18:47:30 437.470
BRITE-PL 30 Jul 18:42:05 18:46:13 79° 259° (W) 18:50:25 437.365/2234.400
NOAA 15 30 Jul 18:44:32 18:49:47 87° 74° (ENE) 18:55:03 137.62
CUBESAT XI-V 30 Jul 18:53:12 18:57:49 76° 283° (WNW) 19:02:26 437.345
DOVE 4 30 Jul 18:58:23 19:02:02 27° 69° (ENE) 19:05:51 437.250
